When you browse on this site, cookies collect data to enhance your experience and personalize the content and advertising you see.
Visit our Privacy Policy to learn more. By continuing to use the site, you agree to this use of cookies and data.
  • în România
  • Lista ţărilor
  • Pe 7 zile
  • Temperatura apei
  • Hartă satelitară
  • Meteo pe hartă
  • Widget-uri
  • user-avatar
    Intrare

    Meteo pe oră la Świdwin

    Astăzi, 20 Mai, Luni

    Timp Temperatura Precipitaţii Vânt Presiune Umiditate
    00:00 +16°C° 0.2 mm 2 m/s 745 mmHg 95%
    01:00 +15°C° 0.2 mm 2 m/s 745 mmHg 95%
    02:00 +15°C° 0 mm 2 m/s 744 mmHg 95%
    03:00 +14°C° 0 mm 3 m/s 744 mmHg 95%
    04:00 +14°C° 0 mm 3 m/s 744 mmHg 95%
    05:00 +16°C° 0 mm 3 m/s 744 mmHg 93%
    06:00 +17°C° 0 mm 3 m/s 744 mmHg 90%
    07:00 +19°C° 0 mm 3 m/s 744 mmHg 87%
    08:00 +20°C° 0 mm 3 m/s 744 mmHg 80%
    09:00 +22°C° 0 mm 4 m/s 744 mmHg 72%
    10:00 +23°C° 0 mm 4 m/s 744 mmHg 65%
    11:00 +25°C° 0.2 mm 4 m/s 744 mmHg 62%
    12:00 +26°C° 0.2 mm 3 m/s 744 mmHg 59%
    13:00 +26°C° 0.2 mm 3 m/s 744 mmHg 55%
    14:00 +25°C° 1.3 mm 3 m/s 743 mmHg 64%
    15:00 +24°C° 1.3 mm 2 m/s 743 mmHg 73%
    16:00 +21°C° 1.3 mm 2 m/s 743 mmHg 82%
    17:00 +21°C° 0.5 mm 2 m/s 743 mmHg 83%
    18:00 +20°C° 0.5 mm 3 m/s 743 mmHg 85%
    19:00 +20°C° 0.5 mm 3 m/s 743 mmHg 87%
    20:00 +19°C° 0 mm 3 m/s 743 mmHg 89%
    21:00 +18°C° 0 mm 3 m/s 742 mmHg 92%
    22:00 +17°C° 0 mm 2 m/s 742 mmHg 94%
    23:00 +17°C° 0 mm 2 m/s 743 mmHg 95%

    Mâine, 21 Mai, Marţi

    Timp Temperatura Precipitaţii Vânt Presiune Umiditate
    00:00 +17°C° 0 mm 2 m/s 743 mmHg 95%
    01:00 +16°C° 0 mm 2 m/s 743 mmHg 96%
    02:00 +16°C° 0 mm 1 m/s 743 mmHg 96%
    03:00 +16°C° 0 mm 1 m/s 743 mmHg 96%
    04:00 +15°C° 0 mm 1 m/s 742 mmHg 95%
    05:00 +16°C° 0.1 mm 1 m/s 743 mmHg 94%
    06:00 +18°C° 0.1 mm 1 m/s 743 mmHg 92%
    07:00 +17°C° 0.1 mm 0 m/s 743 mmHg 91%
    08:00 +21°C° 1.1 mm 1 m/s 743 mmHg 85%
    09:00 +22°C° 1.1 mm 1 m/s 743 mmHg 79%
    10:00 +23°C° 1.1 mm 1 m/s 743 mmHg 73%
    11:00 +23°C° 1.4 mm 2 m/s 743 mmHg 74%
    12:00 +23°C° 1.4 mm 2 m/s 743 mmHg 76%
    13:00 +23°C° 1.4 mm 2 m/s 743 mmHg 77%
    14:00 +23°C° 0.6 mm 2 m/s 743 mmHg 77%
    15:00 +23°C° 0.6 mm 2 m/s 743 mmHg 76%
    16:00 +22°C° 0.6 mm 3 m/s 743 mmHg 76%
    17:00 +21°C° 0.4 mm 2 m/s 743 mmHg 80%
    18:00 +20°C° 0.4 mm 2 m/s 743 mmHg 84%
    19:00 +21°C° 0.4 mm 1 m/s 743 mmHg 88%
    20:00 +19°C° 0 mm 1 m/s 743 mmHg 90%
    21:00 +18°C° 0 mm 1 m/s 743 mmHg 92%
    22:00 +16°C° 0 mm 1 m/s 743 mmHg 94%
    23:00 +16°C° 0 mm 1 m/s 743 mmHg 95%

    Poimâine, 22 Mai, Miercuri

    Timp Temperatura Precipitaţii Vânt Presiune Umiditate
    00:00 +15°C° 0 mm 1 m/s 743 mmHg 95%
    01:00 +15°C° 0 mm 1 m/s 742 mmHg 96%
    02:00 +15°C° 0 mm 2 m/s 742 mmHg 96%
    03:00 +15°C° 0 mm 2 m/s 742 mmHg 97%
    04:00 +15°C° 0 mm 2 m/s 742 mmHg 98%
    05:00 +14°C° 0 mm 3 m/s 742 mmHg 95%
    06:00 +16°C° 0 mm 3 m/s 742 mmHg 92%
    07:00 +17°C° 0 mm 3 m/s 742 mmHg 89%
    08:00 +17°C° 0.1 mm 3 m/s 743 mmHg 85%
    09:00 +18°C° 0.1 mm 3 m/s 743 mmHg 82%
    10:00 +19°C° 0.1 mm 4 m/s 743 mmHg 78%
    11:00 +19°C° 0.1 mm 4 m/s 743 mmHg 77%
    12:00 +20°C° 0.1 mm 4 m/s 744 mmHg 75%
    13:00 +20°C° 0.1 mm 4 m/s 744 mmHg 74%
    14:00 +20°C° 0.1 mm 5 m/s 744 mmHg 76%
    15:00 +20°C° 0.1 mm 5 m/s 744 mmHg 77%
    16:00 +19°C° 0.1 mm 5 m/s 744 mmHg 78%
    17:00 +17°C° 0 mm 6 m/s 745 mmHg 81%
    18:00 +15°C° 0 mm 6 m/s 745 mmHg 85%
    19:00 +13°C° 0 mm 6 m/s 745 mmHg 89%
    20:00 +13°C° 0 mm 6 m/s 746 mmHg 90%
    21:00 +12°C° 0 mm 5 m/s 747 mmHg 91%
    22:00 +12°C° 0 mm 5 m/s 747 mmHg 92%
    23:00 +11°C° 0.1 mm 6 m/s 747 mmHg 92%

    23 Mai, Joi

    Timp Temperatura Precipitaţii Vânt Presiune Umiditate
    00:00 +11°C° 0.1 mm 6 m/s 748 mmHg 91%
    01:00 +11°C° 0.1 mm 7 m/s 748 mmHg 91%
    02:00 +10°C° 0.1 mm 7 m/s 748 mmHg 91%
    03:00 +9°C° 0.1 mm 7 m/s 749 mmHg 91%
    04:00 +9°C° 0.1 mm 7 m/s 749 mmHg 91%
    05:00 +9°C° 0 mm 7 m/s 750 mmHg 90%
    06:00 +9°C° 0 mm 7 m/s 750 mmHg 88%
    07:00 +8°C° 0 mm 7 m/s 751 mmHg 87%
    08:00 +9°C° 0 mm 7 m/s 751 mmHg 82%
    09:00 +10°C° 0 mm 7 m/s 752 mmHg 78%
    10:00 +11°C° 0 mm 7 m/s 752 mmHg 73%
    11:00 +11°C° 0 mm 7 m/s 752 mmHg 72%
    12:00 +12°C° 0 mm 7 m/s 752 mmHg 70%
    13:00 +12°C° 0 mm 7 m/s 752 mmHg 69%
    14:00 +12°C° 0 mm 7 m/s 752 mmHg 69%
    15:00 +13°C° 0 mm 6 m/s 752 mmHg 69%
    16:00 +13°C° 0 mm 6 m/s 752 mmHg 69%
    17:00 +13°C° 0 mm 5 m/s 752 mmHg 72%
    18:00 +12°C° 0 mm 4 m/s 752 mmHg 76%
    19:00 +11°C° 0 mm 3 m/s 752 mmHg 79%
    20:00 +10°C° 0 mm 2 m/s 752 mmHg 82%
    21:00 +9°C° 0 mm 2 m/s 752 mmHg 85%
    22:00 +8°C° 0 mm 2 m/s 752 mmHg 88%
    23:00 +7°C° 0 mm 2 m/s 752 mmHg 87%

    24 Mai, Vineri

    Timp Temperatura Precipitaţii Vânt Presiune Umiditate
    00:00 +7°C° 0 mm 2 m/s 752 mmHg 86%
    01:00 +7°C° 0 mm 2 m/s 752 mmHg 85%
    02:00 +7°C° 0 mm 2 m/s 751 mmHg 86%
    03:00 +6°C° 0 mm 2 m/s 751 mmHg 87%
    04:00 +6°C° 0 mm 2 m/s 751 mmHg 88%
    05:00 +8°C° 0 mm 2 m/s 751 mmHg 83%
    06:00 +10°C° 0 mm 2 m/s 751 mmHg 78%
    07:00 +13°C° 0 mm 2 m/s 751 mmHg 74%
    08:00 +14°C° 0 mm 2 m/s 750 mmHg 69%
    09:00 +15°C° 0 mm 2 m/s 750 mmHg 63%
    10:00 +17°C° 0 mm 2 m/s 750 mmHg 58%
    11:00 +18°C° 0 mm 1 m/s 750 mmHg 57%
    12:00 +19°C° 0 mm 1 m/s 749 mmHg 55%
    13:00 +20°C° 0 mm 1 m/s 749 mmHg 54%
    14:00 +20°C° 0 mm 1 m/s 748 mmHg 52%
    15:00 +20°C° 0 mm 1 m/s 748 mmHg 51%
    16:00 +21°C° 0 mm 1 m/s 748 mmHg 49%
    17:00 +20°C° 0 mm 1 m/s 747 mmHg 54%
    18:00 +19°C° 0 mm 1 m/s 747 mmHg 60%
    19:00 +18°C° 0 mm 1 m/s 747 mmHg 65%
    20:00 +15°C° 0 mm 2 m/s 747 mmHg 68%
    21:00 +14°C° 0 mm 2 m/s 747 mmHg 71%
    22:00 +12°C° 0 mm 3 m/s 747 mmHg 74%
    23:00 +11°C° 0 mm 3 m/s 746 mmHg 75%

    25 Mai, Sâmbătă

    Timp Temperatura Precipitaţii Vânt Presiune Umiditate
    00:00 +11°C° 0 mm 3 m/s 746 mmHg 75%
    01:00 +10°C° 0 mm 2 m/s 746 mmHg 76%
    02:00 +10°C° 0 mm 3 m/s 746 mmHg 77%
    03:00 +10°C° 0 mm 3 m/s 746 mmHg 78%
    04:00 +9°C° 0 mm 3 m/s 746 mmHg 78%
    05:00 +11°C° 0 mm 3 m/s 746 mmHg 76%
    06:00 +13°C° 0 mm 3 m/s 746 mmHg 74%
    07:00 +14°C° 0 mm 3 m/s 746 mmHg 71%
    08:00 +17°C° 0 mm 3 m/s 747 mmHg 66%
    09:00 +19°C° 0 mm 3 m/s 747 mmHg 61%
    10:00 +20°C° 0 mm 3 m/s 747 mmHg 56%
    11:00 +21°C° 0 mm 2 m/s 747 mmHg 53%
    12:00 +23°C° 0 mm 2 m/s 747 mmHg 51%
    13:00 +23°C° 0 mm 2 m/s 747 mmHg 48%
    14:00 +23°C° 0 mm 2 m/s 747 mmHg 51%
    15:00 +23°C° 0 mm 2 m/s 747 mmHg 54%
    16:00 +23°C° 0 mm 2 m/s 747 mmHg 56%
    17:00 +20°C° 0.2 mm 2 m/s 747 mmHg 65%
    18:00 +18°C° 0.2 mm 2 m/s 747 mmHg 74%
    19:00 +17°C° 0.2 mm 3 m/s 747 mmHg 83%
    20:00 +15°C° 0 mm 2 m/s 747 mmHg 86%
    21:00 +14°C° 0 mm 2 m/s 747 mmHg 88%
    22:00 +12°C° 0 mm 2 m/s 748 mmHg 91%
    23:00 +12°C° 0 mm 2 m/s 748 mmHg 90%
    Arată mai mult